sat.trackr.live / text

‹ back to catalog

STARLINK-1931

NORAD 46790 · 2020-074BD

PAYLOAD ACTIVE UNKNOWN

§ Identity

Operator
Country
US
Launch date
2020-10-24
Launch site
AFETR
Launch vehicle
Mass (kg)
RCS (m²)

Purposes: comms

External: N2YO · Heavens-Above · Gunter

§ Orbital elements

Epoch: 2026-06-26T23:50:31.036992Z

Period
87.59 min
Inclination
53.0208°
Eccentricity
0.0009403
Mean motion
16.43936910 rev/d
Perigee alt
149.2 km
Apogee alt
161.5 km
Semi-major
6,533.5 km
B*
3.7036e-4
RAAN
93.0154°
Arg perigee
254.3773°
Mean anomaly
105.6237°
Rev number
31,451

§ Raw data

STARLINK-19311 46790U 20074BD  26177.99341478  .11156814  12430-4  37036-3 0  99902 46790  53.0208  93.0154 0009403 254.3773 105.6237 16.43936910314515

JSON: /api/v1/satellites/46790 · /tle

For live sub-satellite position, see the globe view (requires WebGL).

§ Visibility from observer

Set your observer location to see the next 7 days of passes ≥ 10°. The values pass through the URL so the page stays shareable.

No JS? Fill the form by hand. The geolocation button needs JavaScript.